[[{"header":{"parameterUnit":"m.s-1","parameterCategory":1,"la1":30.2991,"la2":30.254,"lo1":-89.0895,"lo2":-89.0444,"dy":0.0017,"dx":0.0017,"nx":28,"ny":28,"refTime":"2023-07-29T21:00:00:Z","depth":0,"parameterNumber":2,"parameterNumberName":"U-component_of_WINDS"},"data":[0,0,0,0,0,0,0,0,0,0,0,0,0,0,0,0,0,0,0,0,0,0,0,0,0,0,0,0,0,0,0,0,0,0,0,0,0,0,0,0,0,0,0,0,0,0,0,0,0,0,0,0,0,0,0,0,0,0,2.2492,2.2494,0,2.268,2.2682,2.2684,2.2702,2.27,2.2698,2.2696,2.2891,2.2897,2.2904,0,0,0,0,0,0,0,0,0,0,0,0,0,2.2152,2.2158,2.2492,2.2495,2.2497,2.2679,2.2682,2.2684,2.2703,2.27,2.2698,2.2696,2.2888,2.2897,2.2905,0,0,0,0,0,0,0,0,0,0,0,0,0,2.2316,2.216,2.2492,2.2528,2.2533,2.2679,2.2682,2.2685,2.2703,2.27,2.2697,2.2694,2.2886,2.2896,2.2906,2.3029,0,0,2.2938,2.2943,0,0,0,0,0,0,0,0,2.2306,2.2328,2.252,2.2526,2.2532,2.2664,2.2633,2.2801,2.2704,2.2639,2.2696,2.2693,2.2818,2.2834,2.2875,2.3039,2.3047,2.2939,2.2945,2.295,2.2953,0,0,0,0,0,0,0,2.2295,2.232,2.2566,2.2523,2.253,2.2535,2.2555,2.2665,2.2742,2.2644,2.2646,2.2668,2.282,2.2865,2.288,2.305,2.2939,2.2948,2.2955,2.2959,2.3323,2.3327,0,0,0,0,0,0,2.2277,2.2311,2.256,2.2572,2.2409,2.2544,2.2566,2.2625,2.2741,2.2756,2.267,2.2668,2.2849,2.2868,2.2887,2.3039,2.295,2.296,2.2966,2.332,2.3324,2.3328,0,0,0,0,0,0,2.2269,2.2299,2.2553,2.2442,2.2475,2.2553,2.2618,2.263,2.2675,2.2761,2.2775,2.2701,2.2847,2.2872,2.2994,2.3046,2.2964,2.2974,2.3316,2.3321,2.3326,2.3344,0,0,0,0,0,0,2.2259,2.2296,2.2343,2.2443,2.248,2.2656,2.2622,2.2636,2.2693,2.2692,2.2794,2.2808,2.2847,2.2978,2.3004,2.3059,2.2982,2.3312,2.3318,2.3324,2.3339,2.3349,2.3357,0,0,0,0,0,2.2247,2.2341,2.2345,2.2376,2.2541,2.2659,2.2681,2.2722,2.2697,2.2745,2.28,2.2805,2.3036,2.299,2.302,2.3078,2.3309,2.3317,2.3324,2.3335,2.3347,2.3357,0,0,0,0,0,0,2.2246,2.2355,2.2361,2.249,2.2565,2.2662,2.2724,2.2734,2.2818,2.2814,2.2863,2.2886,2.3006,2.3055,2.3002,2.3204,2.317,2.3184,2.3168,2.318,2.3189,2.3175,2.2991,0,0,0,0,0,2.2261,2.2347,2.2438,2.2543,2.258,2.2645,2.2698,2.2724,2.2804,2.2836,2.29,2.2978,2.3069,2.3127,2.3215,2.3346,2.3369,2.3401,2.341,2.3417,2.3429,2.3501,2.3517,2.3353,2.3353,2.3353,0,0,2.2293,2.2363,2.2414,2.2544,2.2605,2.2694,2.2672,2.2767,2.2833,2.2851,2.2969,2.3019,2.3109,2.3236,2.3295,2.328,2.3479,2.3427,2.3432,2.344,2.3511,2.3526,2.354,2.3358,2.3357,2.3357,0,0,2.2395,2.2457,2.2551,2.2612,2.2705,2.2748,2.277,2.2866,2.29,2.3019,2.3034,2.3114,2.3268,2.3332,2.3385,2.3511,2.3519,2.3539,2.3587,2.3657,2.367,2.3682,2.3726,2.3742,2.355,2.355,2.355,0,2.2423,2.2556,2.2598,2.2692,2.2749,2.2769,2.2864,2.2923,2.3039,2.3079,2.306,2.3254,2.3316,2.3458,2.3489,2.3531,2.3558,2.3527,2.3665,2.3677,2.3688,2.3731,2.3748,2.3552,2.3551,2.3551,2.3551,0,2.2585,2.2677,2.2742,2.2854,2.2918,2.3013,2.307,2.313,2.315,2.3195,2.3316,2.3392,2.3495,2.3531,2.3552,2.3676,2.3663,2.3654,2.3621,2.3705,2.3746,2.3763,2.3554,2.3553,2.3553,2.3553,0,0,2.2692,2.2825,2.2849,2.2899,2.3003,2.3075,2.3171,2.3271,2.3322,2.3402,2.3483,2.3613,2.3605,2.3665,2.3694,2.3755,2.385,2.3739,2.3742,2.3757,2.3991,2.3997,2.4015,2.3856,2.3859,2.3862,2.3983,0,2.2806,2.2976,2.3017,2.3162,2.3248,2.3268,2.3351,2.3424,2.3469,2.3548,2.3598,2.3689,2.3672,2.3708,2.377,2.3825,2.3898,2.3817,2.3932,2.3936,2.3908,2.4037,2.4043,2.4154,2.4,2.4003,2.4005,0,2.2961,2.3044,2.3198,2.329,2.3328,2.3402,2.3497,2.3573,2.3656,2.3684,2.375,2.3773,2.3873,2.3835,2.3974,2.3918,2.3968,2.4002,2.4008,2.402,2.3975,2.4052,2.4191,2.4207,2.4031,2.4029,2.4027,0,2.3023,2.3173,2.3285,2.3328,2.3438,2.349,2.3538,2.3619,2.3676,2.3759,2.3797,2.3892,2.3943,2.4016,2.4063,2.403,2.4198,2.4164,2.4225,2.4223,2.4259,2.4256,2.4407,2.4292,2.4291,2.4291,2.4291,0,2.3146,2.3239,2.3314,2.3382,2.3488,2.3534,2.3637,2.3686,2.3757,2.3836,2.3859,2.3933,2.3991,2.4072,2.411,2.4219,2.4243,2.4269,2.4277,2.4266,2.4263,2.4299,2.4292,2.4295,2.4294,2.4294,2.4293,0,2.3233,2.3286,2.3409,2.3504,2.353,2.3603,2.3684,2.3752,2.3797,2.3896,2.3922,2.3993,2.409,2.4144,2.4267,2.4292,2.4414,2.4419,2.4386,2.4389,2.4447,2.444,2.4626,2.4652,2.452,2.4521,2.4522,0,2.3307,2.3379,2.3481,2.3535,2.3584,2.3671,2.373,2.3779,2.3839,2.3939,2.3994,2.4093,2.4174,2.4328,2.4391,2.4485,2.4492,2.4551,2.4506,2.4492,2.4492,2.4487,2.4494,2.4558,2.4559,2.456,2.4561,0,2.3433,2.3456,2.3539,2.3632,2.3701,2.3777,2.3852,2.3895,2.3956,2.4023,2.4122,2.4185,2.4309,2.4406,2.4505,2.4556,2.4569,2.4574,2.4593,2.4582,2.4559,2.4572,2.4406,2.457,2.4569,2.4568,2.4568,2.4568,2.3516,2.358,2.3662,2.3754,2.3816,2.3885,2.3953,2.4006,2.409,2.4194,2.4218,2.4323,2.4404,2.4538,2.4591,2.4674,2.4663,2.469,2.4697,2.4703,2.4705,2.4547,2.4692,2.4692,2.4692,2.4692,2.4691,0,2.3642,2.3696,2.378,2.3884,2.3956,2.3962,2.4045,2.4105,2.4197,2.4271,2.4351,2.4464,2.4559,2.4629,2.4726,2.4778,2.4787,2.4802,2.4798,2.4809,2.4709,2.4683,2.4793,2.4793,2.4793,2.4793,2.4793,2.4793,2.3716,2.3826,2.3859,2.4,2.4053,2.4155,2.4202,2.4266,2.4326,2.4452,2.453,2.4575,2.4648,2.475,2.4837,2.4855,2.4889,2.4904,2.4923,2.4828,2.4817,2.4806,2.4782,2.4911,2.4911,2.5016,2.5017,2.5018]},{"header":{"parameterUnit":"m.s-1","parameterCategory":1,"la1":30.2991,"la2":30.254,"lo1":-89.0895,"lo2":-89.0444,"dy":0.0017,"dx":0.0017,"nx":28,"ny":28,"refTime":"2023-07-29T21:00:00:Z","depth":0,"parameterNumber":3,"parameterNumberName":"V-component_of_WINDS"},"data":[0,0,0,0,0,0,0,0,0,0,0,0,0,0,0,0,0,0,0,0,0,0,0,0,0,0,0,0,0,0,0,0,0,0,0,0,0,0,0,0,0,0,0,0,0,0,0,0,0,0,0,0,0,0,0,0,0,0,2.7918,2.7919,0,2.8054,2.8056,2.8057,2.8043,2.8041,2.8039,2.8037,2.8178,2.8184,2.8189,0,0,0,0,0,0,0,0,0,0,0,0,0,2.7644,2.7649,2.7918,2.7919,2.7921,2.8054,2.8056,2.8058,2.8044,2.8041,2.8039,2.8036,2.8176,2.8183,2.819,0,0,0,0,0,0,0,0,0,0,0,0,0,2.777,2.765,2.7917,2.793,2.7933,2.8054,2.8056,2.8058,2.8044,2.8041,2.8038,2.8035,2.8174,2.8182,2.8191,2.8309,0,0,2.8217,2.8221,0,0,0,0,0,0,0,0,2.7763,2.778,2.7927,2.7929,2.7932,2.8028,2.8011,2.8142,2.8045,2.8002,2.8037,2.8033,2.8131,2.8143,2.8176,2.8315,2.8321,2.8218,2.8223,2.8227,2.8229,0,0,0,0,0,0,0,2.7754,2.7774,2.7972,2.7929,2.7932,2.7929,2.7943,2.8036,2.8083,2.8005,2.8005,2.8021,2.8132,2.8167,2.8179,2.8323,2.8218,2.8225,2.8231,2.8234,2.8562,2.8566,0,0,0,0,0,0,2.7742,2.7767,2.7967,2.7976,2.7838,2.7936,2.7952,2.8001,2.8082,2.8091,2.8024,2.802,2.8154,2.8169,2.8184,2.8325,2.8227,2.8235,2.824,2.8559,2.8563,2.8567,0,0,0,0,0,0,2.7736,2.776,2.7962,2.7871,2.7897,2.7944,2.7999,2.8005,2.8041,2.8096,2.8104,2.8051,2.8152,2.8172,2.8277,2.833,2.8239,2.8247,2.8555,2.856,2.8565,2.8609,0,0,0,0,0,0,2.7728,2.7758,2.7804,2.7872,2.7901,2.8053,2.8002,2.801,2.8056,2.8052,2.8124,2.8133,2.8151,2.8264,2.8285,2.834,2.8253,2.855,2.8557,2.8563,2.8603,2.8615,2.8625,0,0,0,0,0,2.7719,2.7812,2.7806,2.7831,2.796,2.8057,2.8073,2.8093,2.806,2.8106,2.814,2.813,2.832,2.8275,2.8299,2.8357,2.8547,2.8555,2.8563,2.8598,2.8613,2.8625,0,0,0,0,0,0,2.775,2.7821,2.7816,2.7934,2.7989,2.8054,2.8113,2.8108,2.8174,2.8168,2.8189,2.8206,2.8311,2.8344,2.8293,2.8473,2.8429,2.8442,2.8447,2.8462,2.8473,2.8463,2.8261,0,0,0,0,0,2.7771,2.7843,2.7901,2.8,2.8028,2.8065,2.8108,2.8118,2.8176,2.82,2.8242,2.8299,2.8371,2.8418,2.8488,2.8607,2.8622,2.8659,2.867,2.8679,2.869,2.8753,2.8769,2.8593,2.8593,2.8593,0,0,2.7814,2.7862,2.7907,2.8007,2.8051,2.8125,2.8085,2.8166,2.8221,2.8212,2.8313,2.8346,2.8411,2.8522,2.8574,2.8554,2.8741,2.8689,2.8696,2.8702,2.8762,2.8779,2.8794,2.8598,2.8597,2.8597,0,0,2.7931,2.7975,2.8061,2.8105,2.8171,2.8194,2.8215,2.828,2.8301,2.8402,2.8396,2.8461,2.8586,2.8631,2.8671,2.88,2.8793,2.8822,2.8881,2.8942,2.8956,2.8968,2.9013,2.9029,2.8833,2.8833,2.8834,0,2.7977,2.8088,2.8106,2.8186,2.823,2.8223,2.8309,2.8351,2.8437,2.8467,2.8442,2.8596,2.8639,2.876,2.8791,2.8824,2.8847,2.8815,2.8953,2.8965,2.8977,2.902,2.9037,2.8837,2.8836,2.8836,2.8836,0,2.8141,2.8218,2.8279,2.836,2.841,2.8493,2.8522,2.8571,2.8575,2.8601,2.8703,2.8754,2.8832,2.8862,2.8868,2.8983,2.8968,2.8948,2.8904,2.8997,2.9037,2.9054,2.8841,2.884,2.8839,2.8838,0,0,2.8284,2.837,2.8393,2.8428,2.8499,2.8558,2.864,2.8715,2.8756,2.8814,2.8882,2.8986,2.8967,2.9011,2.9022,2.9075,2.9172,2.9048,2.905,2.9069,2.9299,2.9314,2.9332,2.9167,2.917,2.9173,2.9293,0,2.8407,2.8551,2.8567,2.8695,2.8765,2.8758,2.8828,2.8879,2.8904,2.8967,2.8995,2.9068,2.9038,2.9064,2.9117,2.9149,2.9218,2.9141,2.9229,2.9232,2.9213,2.9354,2.937,2.9482,2.931,2.9312,2.9314,0,2.857,2.8631,2.8766,2.8823,2.8854,2.8917,2.8986,2.9046,2.9102,2.9117,2.9164,2.9167,2.925,2.9202,2.9315,2.9261,2.9298,2.9319,2.9324,2.9333,2.9279,2.9366,2.9519,2.9535,2.934,2.9338,2.9336,0,2.8659,2.8775,2.887,2.89,2.8971,2.9015,2.9046,2.9099,2.9142,2.9202,2.923,2.9299,2.9337,2.939,2.941,2.9374,2.9522,2.9476,2.9535,2.9535,2.9567,2.9565,2.9727,2.9592,2.9591,2.9591,2.9591,0,2.8794,2.8877,2.891,2.8968,2.9059,2.9076,2.9166,2.9195,2.9242,2.9305,2.9303,2.9362,2.9386,2.9448,2.9465,2.9554,2.9572,2.9585,2.9589,2.9585,2.9583,2.961,2.9603,2.9595,2.9594,2.9594,2.9593,0,2.891,2.8935,2.9038,2.9095,2.9111,2.9175,2.9224,2.928,2.9303,2.9383,2.9402,2.9439,2.9512,2.9537,2.9627,2.9637,2.9742,2.9739,2.9723,2.9723,2.978,2.9774,2.9965,2.999,2.9839,2.984,2.9841,0,2.8994,2.9057,2.912,2.9161,2.9194,2.9261,2.9305,2.9323,2.9368,2.9434,2.9481,2.9554,2.9613,2.9729,2.9764,2.9831,2.9829,2.9891,2.984,2.9833,2.9829,2.9825,2.983,2.9901,2.9903,2.9904,2.9905,0,2.9141,2.915,2.9213,2.9279,2.933,2.9383,2.9435,2.9469,2.9494,2.9545,2.9619,2.9664,2.9753,2.9825,2.9893,2.9924,2.9919,2.9921,2.9938,2.9935,2.9923,2.9929,2.9748,2.9917,2.9916,2.9915,2.9914,2.9914,2.9244,2.9298,2.9349,2.9418,2.9458,2.9506,2.956,2.9589,2.9651,2.9724,2.9731,2.981,2.9861,2.9952,2.9986,3.0048,3.0031,3.0056,3.0062,3.0068,3.0072,2.9913,3.0061,3.006,3.006,3.006,3.006,0,2.9389,2.9421,2.9484,2.9555,2.9609,2.9597,2.9653,2.9698,2.9768,2.9816,2.9873,2.9956,3.0025,3.0063,3.0131,3.0173,3.0171,3.019,3.0187,3.0194,3.0084,3.0062,3.0189,3.0189,3.0189,3.0189,3.0189,3.0189,2.9472,2.9562,2.9576,2.9686,2.9717,2.9795,2.9827,2.987,2.9908,3.0001,3.0057,3.0081,3.0125,3.0195,3.0257,3.0266,3.0291,3.0311,3.0318,3.0215,3.0202,3.0189,3.0168,3.0316,3.0316,3.0423,3.0424,3.0424]}]]